Simultaneous Nadir Overpasses (SNOs) Predictions

Prediction of SNOs between TERRA and METOP-C Satellite Orbit:

Table of predicted SNOs for the next 14.0 days since TLE Epoch: 8/20/2022
Index Date (TERRA) Time (TERRA) Lat,Lon (TERRA) SZA (TERRA ) Date (METOP-C) Time (METOP-C) Lat,Lon (METOP-C) SZA (METOP-C ) Distance(km) Time Diff (sec)
1 08/21/2022 23:45:44 81.15,-136.45 71.32 08/21/2022 23:45:15 81.15,-136.59 71.29 2.44 29
2 08/22/2022 00:35:10 -81.17, 31.50 108.63 08/22/2022 00:35:53 -81.17, 31.50 108.61 0.43 43
3 08/24/2022 19:19:54 81.16, -69.79 72.32 08/24/2022 19:19:35 81.15, -69.92 72.29 2.43 19
4 08/24/2022 20:09:20 -81.18, 98.19 107.62 08/24/2022 20:10:13 -81.18, 98.17 107.60 0.67 53
5 08/27/2022 14:54:04 81.15, -3.58 73.28 08/27/2022 14:53:55 81.15, -3.66 73.27 1.43 9
6 08/27/2022 15:43:30 -81.17, 164.43 106.66 08/27/2022 15:44:33 -81.17, 164.43 106.63 0.39 63
7 08/30/2022 09:38:49 -81.13,-105.05 105.77 08/30/2022 09:37:35 -81.14,-104.94 105.78 2.08 74
8 08/30/2022 10:28:14 81.15, 62.90 74.30 08/30/2022 10:28:15 81.16, 62.94 74.31 0.98 1
9 08/30/2022 11:17:40 -81.18,-129.07 105.64 08/30/2022 11:18:53 -81.18,-128.95 105.59 2.10 73
10 09/02/2022 05:12:59 -81.13, -38.64 104.74 09/02/2022 05:11:56 -81.13, -38.73 104.77 1.60 63



Historial Predications of SNOs between TERRA and METOP-C
